Location: ????
(55.5675°N, 37.6272°E)
Time: 19:54:10
(UTC+00:00)

Cosmos 1766 - Pass Details

Date: 14 April 2026
Orbit: 402 x 407 km, 82.5° (Epoch: 16 May)

Event Time Altitude Azimuth Distance (km) Brightness Sun altitude
Rises 23:43:41 0° 349° (N) 2,344 7.2 -19.0°
Reaches altitude 10° 23:45:43 10° 351° (N) 1,480 6.1 -18.9°
Maximum altitude 23:48:55 74° 77° (ENE) 431 2.8 -18.6°
Enters shadow 23:49:41 47° 149° (SSE) 549 3.1 -18.5°
